Wind_Speed
103 108 102 93 97 94 94 92 89 81 83 89 85 81 81 79 80 79 76 71 68 69 67 62 60 64 62 55 52 49 47 46 45 51 52 53 50 48 42 43 44 46 47 45
117 107 89 95 100 104 102 99 95 85 88 92 89 86 82 80 80 79 78 76 73 73 73 68 57 69 63 60 53 51 48 52 52 56 57 55 49 46 45 48 51 52 50 50
115 103 105 103 103 109 109 106 98 92 101 101 97 93 86 82 79 77 78 77 76 75 75 70 62 74 65 62 61 57 53 56 54 54 53 50 46 47 53 55 56 55 54 55
118 105 113 113 109 104 105 101 106 114 111 109 107 104 92 83 82 81 81 81 80 78 76 71 66 67 71 69 66 62 58 59 55 54 55 55 54 55 58 61 63 61 56 60
117 112 112 116 112 110 104 108 111 111 116 118 118 113 84 92 88 86 85 85 83 84 80 75 75 72 79 78 72 70 67 66 61 59 60 62 61 60 61 64 64 58 61 61
123 114 117 116 112 113 116 120 116 113 117 122 111 112 94 98 95 96 93 91 90 88 84 80 81 79 78 85 78 79 77 73 65 61 60 63 61 59 59 61 60 64 62 65
123 115 110 117 119 115 120 117 119 123 123 118 104 117 106 103 103 102 102 100 92 92 90 84 84 86 80 84 79 80 77 72 68 64 64 66 65 60 57 62 64 64 65 71
131 123 116 113 113 115 116 119 123 125 128 123 114 122 113 105 107 104 104 103 100 96 94 89 89 92 80 83 82 81 81 80 77 75 72 73 71 69 66 65 68 69 73 78
130 127 117 122 121 121 120 128 123 128 129 131 126 123 120 104 106 104 104 105 105 102 103 96 97 93 88 89 87 82 80 81 80 77 77 76 75 74 72 70 76 79 79 82
130 128 122 122 122 124 129 123 127 127 131 133 128 125 124 110 102 103 107 109 107 109 108 106 103 98 96 95 95 92 84 82 81 79 81 81 81 81 81 81 81 81 84 82
131 132 121 130 129 125 122 128 128 130 130 131 129 128 119 116 110 107 103 108 112 112 111 109 107 105 102 101 98 98 94 88 85 85 82 80 80 80 80 79 81 83 86 85
124 122 124 124 123 128 126 128 126 131 131 130 130 127 115 118 110 111 113 108 106 107 116 116 113 108 107 105 104 103 99 97 94 93 88 85 84 85 87 87 89 89 91 87
120 121 115 116 125 126 133 134 131 132 128 134 132 129 109 110 112 116 117 114 112 108 109 115 113 115 111 105 102 102 102 98 96 96 94 93 91 92 93 94 94 92 87 89
126 122 118 110 111 119 125 124 126 125 128 126 126 118 116 106 105 105 112 119 116 115 116 117 107 105 110 114 110 103 101 98 98 98 98 97 97 97 97 95 90 87 88 89
130 123 122 118 111 112 111 114 116 121 121 123 121 115 118 106 103 100 104 109 113 120 120 122 113 105 106 106 106 106 105 100 97 97 97 96 97 96 94 92 89 88 88 82
125 126 124 116 116 120 120 117 114 114 113 113 116 119 111 93 94 96 95 99 102 103 111 119 116 115 110 108 107 107 107 105 102 99 96 95 93 91 90 89 88 88 84 78
125 126 123 116 121 123 122 113 114 114 111 109 112 108 103 96 88 91 94 97 95 96 102 103 108 111 113 113 111 108 108 106 108 106 103 100 98 93 88 85 85 86 83 84
114 121 121 117 121 123 110 116 113 115 114 112 111 101 94 93 82 89 94 94 97 97 98 98 92 94 95 99 100 99 97 96 96 94 95 96 92 90 84 81 84 85 84 87
105 112 112 117 115 112 111 109 111 112 112 112 117 113 104 96 97 90 92 95 96 99 100 96 85 86 89 88 88 86 80 80 80 81 81 82 83 84 85 84 86 86 86 85
91 95 102 106 103 109 102 106 111 114 121 107 107 103 105 108 107 92 91 95 99 100 99 98 90 89 90 88 85 84 80 81 80 81 81 83 82 81 80 84 88 90 91 93
79 84 85 91 93 91 93 110 111 117 107 107 109 106 101 101 102 101 100 104 99 99 99 98 93 95 91 86 85 85 84 85 84 88 87 84 83 82 80 78 78 84 88 92
68 68 70 79 81 76 83 98 103 97 94 102 105 103 98 96 100 107 97 97 102 103 99 99 99 97 92 92 88 86 87 88 89 88 87 84 83 80 77 74 81 85 90 93
54 60 65 65 65 63 79 91 94 92 84 83 90 91 90 89 108 102 96 99 98 99 95 96 94 94 88 89 87 87 86 83 81 79 76 77 74 73 73 77 80 84 84 87
47 55 52 55 54 58 65 76 84 84 82 79 82 88 93 95 105 112 101 98 94 91 87 88 87 85 81 79 78 75 69 65 63 61 63 67 70 70 73 76 78 82 86 89
42 47 47 44 50 59 58 69 80 79 63 68 70 74 84 91 97 105 99 91 87 79 78 79 80 74 71 70 67 65 61 53 51 55 53 55 60 67 71 73 76 81 82 85
36 38 37 42 49 51 58 62 65 64 60 60 62 67 73 78 82 85 79 79 77 73 74 74 65 67 61 59 59 56 56 51 52 54 59 63 70 71 74 78 84 86 87 91
Wind_Direction
233 236 240 241 241 241 243 243 239 238 243 250 252 249 249 249 251 254 256 256 257 261 262 264 269 273 274 276 277 279 278 280 280 283 288 290 293 291 296 304 306 307 313 320
239 234 235 235 239 241 242 243 240 240 244 248 249 249 251 250 251 254 255 257 258 260 263 263 266 271 273 274 272 276 276 279 282 282 285 287 287 283 294 300 302 304 308 316
242 239 241 235 234 239 241 242 242 241 245 246 246 246 246 248 254 257 259 260 260 262 264 265 267 271 273 274 271 273 273 276 279 277 281 285 285 285 290 294 297 300 302 312
240 237 241 242 236 237 240 243 243 244 244 246 249 246 246 249 249 250 255 258 260 261 263 266 266 268 272 269 270 271 270 272 275 276 278 282 283 285 288 290 293 294 300 306
240 236 240 242 243 245 238 240 238 239 244 243 245 250 241 253 252 253 254 254 256 259 260 262 266 264 270 271 271 274 272 272 274 277 278 280 282 285 287 287 288 289 296 303
240 237 236 239 241 243 244 242 240 238 240 243 244 251 240 249 253 253 253 254 254 256 256 259 264 263 265 270 271 272 272 274 275 278 280 282 284 282 282 284 285 288 292 302
241 240 238 239 240 241 245 246 247 245 243 244 243 247 243 246 250 254 254 253 255 256 256 255 259 264 263 268 271 272 273 274 275 275 277 278 280 282 284 284 286 287 292 301
239 237 240 244 243 243 245 246 247 247 247 247 239 241 242 241 243 248 253 255 255 257 258 257 258 259 259 263 267 268 271 273 274 275 274 276 277 279 282 282 283 288 293 299
240 237 241 241 244 243 243 244 246 247 247 246 243 242 244 240 241 245 250 255 255 257 259 256 260 262 264 265 267 268 272 273 274 275 274 276 278 280 281 283 286 290 293 296
241 241 235 240 241 242 243 246 244 247 248 248 247 245 246 243 244 244 246 250 253 254 258 261 260 262 264 265 269 269 269 271 272 272 273 276 279 281 283 286 287 290 293 297
241 240 234 237 238 241 243 245 246 247 249 249 247 245 247 246 246 245 246 248 249 253 255 259 262 262 264 266 269 271 273 272 273 272 273 276 278 280 282 286 288 290 295 298
242 240 239 240 240 242 243 243 247 248 248 249 250 247 245 249 249 250 247 247 250 251 253 254 258 262 265 266 267 270 272 273 274 274 275 276 278 280 283 285 287 290 292 296
241 241 239 236 239 242 243 243 246 250 251 251 250 251 248 250 251 249 249 249 250 252 252 253 254 257 261 262 264 268 270 271 272 273 275 276 278 280 281 284 286 290 291 294
241 240 241 239 237 241 244 243 243 246 249 253 251 254 248 246 252 254 254 251 250 251 256 257 253 255 256 259 262 264 266 267 269 271 273 275 278 280 282 284 286 287 290 293
241 241 240 240 239 240 240 243 246 246 246 247 251 252 250 251 250 250 253 253 253 251 252 257 255 256 257 258 259 261 263 265 268 271 274 277 279 280 281 281 284 286 288 289
243 244 242 239 240 240 240 240 242 245 246 247 251 252 258 253 252 253 254 255 255 256 254 254 255 255 257 260 261 262 263 264 267 271 272 274 276 277 279 281 283 284 287 284
241 242 244 241 240 241 241 241 243 246 248 249 249 253 254 251 246 252 253 253 254 254 255 255 254 255 258 260 261 263 265 267 269 270 271 273 274 275 278 281 282 283 284 281
244 245 245 245 241 241 243 243 244 245 246 248 251 253 254 256 249 247 249 252 253 254 256 256 256 255 256 258 260 261 263 266 267 269 269 270 271 272 271 275 277 277 280 282
239 241 244 245 244 246 242 241 244 245 245 246 247 248 251 252 251 247 248 251 253 253 256 257 255 256 257 257 259 262 263 264 266 267 269 270 270 270 270 268 270 275 277 281
240 241 242 243 243 244 244 245 240 241 245 247 251 250 249 249 249 249 250 252 252 254 255 257 257 256 257 258 259 260 263 265 268 269 269 269 270 271 272 270 268 272 278 279
238 239 241 243 243 241 239 243 244 241 241 244 248 250 250 251 253 252 248 250 254 257 256 257 259 260 260 260 259 262 265 267 269 269 269 268 268 269 271 271 271 272 274 276
245 244 243 241 242 240 241 245 246 245 241 239 243 247 249 252 256 255 253 250 250 252 255 258 259 261 265 267 270 269 269 269 268 268 268 267 268 268 269 269 269 271 273 276
247 245 243 243 243 238 233 241 246 247 245 240 236 240 243 246 251 250 250 252 254 256 255 256 257 262 264 266 269 269 270 269 268 265 263 264 265 264 266 268 271 272 275 277
240 245 242 241 239 239 233 236 243 244 242 240 237 236 237 238 244 253 254 255 257 259 261 260 261 261 262 262 263 264 263 262 259 258 258 261 264 265 265 267 270 271 272 274
241 243 242 238 233 231 231 230 235 241 243 244 240 238 242 244 247 249 251 252 254 256 258 260 262 258 257 256 256 259 259 253 247 252 258 261 262 263 266 267 267 268 271 274
239 239 239 234 232 228 228 228 234 239 241 243 243 242 245 247 248 251 253 254 252 251 253 256 259 262 259 255 254 253 252 247 251 253 253 257 258 264 264 266 268 268 271 275
Height
10629 10624 10660 10687 10679 10685 10687 10693 10700 10710 10714 10703 10718 10730 10733 10739 10744 10750 10757 10763 10767 10770 10771 10776 10779 10773 10775 10777 10775 10786 10783 10785 10786 10784 10784 10785 10783 10780 10776 10775 10773 10770 10767 10763
10589 10625 10669 10642 10656 10659 10666 10673 10686 10698 10694 10685 10697 10707 10717 10726 10733 10737 10742 10749 10754 10756 10756 10761 10770 10757 10762 10765 10766 10769 10773 10770 10777 10775 10775 10775 10775 10772 10768 10764 10761 10760 10758 10754
10579 10631 10609 10619 10625 10633 10645 10654 10676 10679 10664 10661 10675 10685 10701 10713 10721 10730 10730 10734 10737 10741 10740 10747 10758 10742 10752 10753 10753 10758 10762 10756 10763 10764 10765 10765 10765 10763 10760 10758 10752 10748 10747 10744
10554 10599 10588 10594 10607 10615 10630 10652 10646 10645 10643 10648 10651 10662 10687 10705 10709 10713 10716 10718 10721 10724 10726 10732 10742 10740 10733 10735 10740 10748 10748 10745 10750 10752 10753 10755 10756 10753 10750 10747 10744 10738 10735 10731
10534 10569 10570 10575 10597 10596 10618 10604 10607 10615 10611 10626 10626 10634 10709 10685 10693 10698 10700 10703 10706 10708 10713 10720 10716 10730 10716 10718 10726 10730 10733 10731 10738 10740 10741 10742 10743 10743 10740 10735 10732 10727 10724 10719
10507 10541 10544 10557 10571 10572 10577 10568 10582 10592 10591 10583 10635 10632 10683 10671 10673 10676 10680 10685 10690 10691 10697 10705 10701 10709 10714 10698 10713 10710 10716 10717 10724 10727 10728 10727 10729 10729 10726 10722 10720 10716 10711 10708
10492 10519 10536 10525 10536 10556 10555 10565 10564 10561 10562 10581 10631 10601 10636 10646 10654 10654 10657 10663 10675 10671 10679 10692 10691 10684 10701 10684 10698 10695 10698 10706 10708 10712 10714 10712 10714 10716 10713 10708 10705 10703 10699 10693
10462 10486 10508 10523 10525 10538 10529 10529 10521 10528 10541 10560 10587 10556 10596 10630 10624 10639 10640 10648 10657 10661 10664 10677 10673 10664 10684 10674 10681 10683 10683 10690 10695 10698 10700 10698 10699 10700 10698 10695 10691 10688 10685 10681
10436 10463 10489 10485 10490 10495 10512 10489 10512 10503 10510 10513 10546 10555 10564 10614 10619 10629 10631 10634 10641 10643 10638 10653 10649 10654 10665 10661 10661 10667 10671 10675 10678 10682 10681 10682 10684 10683 10681 10679 10676 10673 10670 10666
10411 10420 10458 10453 10455 10460 10466 10485 10484 10480 10486 10497 10527 10546 10552 10596 10613 10615 10616 10618 10616 10623 10621 10626 10634 10640 10642 10645 10642 10645 10657 10660 10660 10664 10664 10666 10667 10667 10664 10664 10661 10657 10653 10649
10385 10386 10438 10420 10423 10442 10451 10449 10453 10466 10463 10474 10496 10517 10551 10568 10587 10590 10595 10594 10599 10602 10609 10606 10611 10619 10626 10629 10627 10622 10633 10642 10644 10644 10648 10650 10651 10650 10648 10647 10643 10640 10637 10631
10349 10371 10388 10406 10426 10415 10420 10426 10430 10428 10445 10454 10469 10490 10537 10541 10567 10566 10571 10579 10575 10591 10587 10589 10593 10598 10606 10612 10610 10607 10611 10618 10624 10623 10631 10632 10633 10633 10631 10629 10627 10623 10619 10615
10326 10332 10358 10383 10381 10390 10391 10413 10422 10421 10430 10423 10440 10467 10531 10531 10535 10544 10545 10555 10559 10563 10561 10555 10581 10584 10590 10589 10590 10589 10590 10600 10602 10604 10610 10612 10613 10613 10612 10611 10608 10607 10602 10597
10293 10318 10331 10351 10364 10363 10364 10383 10397 10399 10397 10410 10423 10451 10483 10510 10514 10519 10517 10525 10539 10541 10532 10523 10559 10569 10568 10568 10569 10571 10569 10578 10583 10585 10588 10592 10593 10592 10592 10590 10589 10586 10581 10578
10263 10281 10301 10322 10342 10345 10356 10362 10369 10372 10387 10386 10404 10418 10450 10488 10491 10492 10488 10501 10506 10509 10516 10502 10531 10545 10541 10545 10548 10549 10549 10556 10563 10566 10568 10569 10570 10571 10570 10569 10570 10565 10562 10560
10242 10255 10265 10300 10314 10314 10317 10331 10348 10356 10372 10383 10393 10402 10429 10471 10471 10465 10481 10475 10473 10483 10490 10488 10505 10513 10521 10521 10523 10526 10530 10537 10543 10547 10551 10550 10550 10549 10549 10549 10548 10545 10543 10541
10218 10223 10238 10270 10275 10274 10291 10336 10339 10345 10350 10360 10364 10387 10413 10430 10449 10450 10450 10443 10453 10455 10459 10470 10479 10488 10495 10496 10498 10504 10511 10520 10521 10528 10529 10530 10528 10528 10529 10530 10526 10524 10524 10520
10201 10204 10218 10232 10237 10250 10302 10297 10313 10323 10339 10348 10352 10372 10389 10395 10426 10429 10425 10429 10428 10433 10431 10439 10457 10463 10468 10468 10476 10487 10496 10503 10500 10502 10505 10506 10506 10506 10509 10510 10508 10505 10505 10499
10172 10182 10191 10195 10223 10241 10265 10292 10298 10302 10310 10319 10322 10341 10361 10377 10386 10400 10404 10407 10410 10407 10407 10418 10443 10445 10445 10453 10458 10466 10478 10479 10481 10481 10484 10484 10484 10485 10488 10490 10488 10486 10484 10479
10149 10162 10169 10178 10196 10206 10251 10263 10270 10270 10261 10312 10317 10333 10341 10345 10346 10380 10397 10387 10384 10388 10393 10399 10416 10421 10426 10435 10445 10449 10458 10458 10462 10463 10463 10462 10464 10465 10467 10468 10468 10465 10462 10458
10130 10138 10151 10158 10168 10188 10227 10219 10226 10227 10277 10286 10289 10304 10319 10326 10339 10353 10364 10360 10370 10373 10378 10383 10394 10398 10407 10417 10424 10430 10435 10437 10444 10436 10439 10443 10443 10444 10447 10447 10446 10442 10441 10436
10120 10130 10139 10139 10151 10173 10208 10195 10194 10220 10249 10261 10267 10280 10296 10306 10309 10309 10334 10347 10347 10351 10365 10368 10371 10379 10389 10395 10400 10408 10411 10412 10413 10416 10419 10420 10422 10426 10426 10426 10422 10421 10418 10414
10112 10113 10117 10129 10145 10164 10174 10170 10177 10190 10212 10232 10248 10265 10275 10274 10268 10281 10298 10308 10322 10333 10347 10351 10358 10361 10373 10376 10381 10379 10382 10386 10389 10392 10395 10397 10401 10404 10405 10402 10401 10398 10397 10393
10099 10096 10109 10118 10138 10146 10156 10156 10155 10172 10186 10204 10222 10235 10242 10249 10255 10262 10277 10290 10303 10314 10325 10328 10335 10343 10353 10356 10356 10358 10361 10365 10368 10371 10373 10376 10380 10382 10382 10381 10380 10378 10376 10371
10084 10090 10095 10111 10118 10122 10136 10141 10139 10147 10171 10186 10198 10214 10222 10231 10240 10244 10262 10277 10287 10297 10301 10305 10313 10324 10331 10334 10337 10341 10344 10346 10349 10352 10357 10359 10361 10361 10361 10362 10358 10356 10356 10353
10074 10080 10089 10097 10101 10111 10117 10124 10135 10149 10161 10171 10184 10195 10202 10210 10219 10227 10243 10253 10267 10278 10283 10288 10295 10301 10308 10313 10317 10320 10324 10329 10333 10338 10340 10340 10341 10343 10343 10341 10336 10336 10337 10335